UAE13U EDDF-OMDB

Flight info

Callsign UAE13U
Flight time N/A
Altitude 35000
Route CINDY8S/18 CINDY Z74 LAMPU DCT NOMBO Y161 MAH DCT LATLO DCT OBEDI DCT BABOL DCT NISVA DCT USALI DCT OTKOK DCT RODIP DCT BELGI DCT KETEK UT38 VESAR L620 BALMA UR655 CEDAR/N0488F370 UR655 LEBOR R655 KTN R785 RASLI P559 TRF R23 NEVOL N318 TAMRO T503 KSA M321 RESAL T533 RAPMA DCT KUVSO DCT KATIT DCT PEKEM M628 RIGIL G783 ELUDA/N0501F350 G783 ASPED Q308 KIPOK Q568 IMPED
Aircraft B77W/H-SDE1E2E3FGHIJ2J3J4J5M1RWXY/LB1D1

Departure

Time N/A
Airport Frankfurt Main Airport (EDDF)

Arrival

Time 2026-05-06 14:40
Airport Dubai International Airport (OMDB)
Time Latitude Longitude Altitude Speed Heading
2026-05-06 09:46 43.46070 21.86407 35054 ft 514 kts 125°
2026-05-06 09:47 43.41928 21.94453 35050 ft 515 kts 125°
2026-05-06 09:47 43.37782 22.02485 35043 ft 515 kts 125°
2026-05-06 09:48 43.33385 22.10228 35046 ft 515 kts 134°
2026-05-06 09:48 43.28379 22.17274 35045 ft 515 kts 135°
2026-05-06 09:49 43.23379 22.24232 35042 ft 515 kts 135°
2026-05-06 09:49 43.18372 22.31264 35042 ft 515 kts 134°
2026-05-06 09:50 43.13377 22.38313 35038 ft 516 kts 134°
2026-05-06 09:50 43.08379 22.45361 35054 ft 516 kts 134°
2026-05-06 09:51 43.03363 22.52413 35042 ft 517 kts 134°
2026-05-06 09:51 42.98343 22.59447 35060 ft 517 kts 134°
2026-05-06 09:52 42.93310 22.66482 35050 ft 518 kts 134°
2026-05-06 09:52 42.88264 22.73517 35056 ft 519 kts 134°
2026-05-06 09:53 42.83243 22.80501 35044 ft 520 kts 134°
2026-05-06 09:53 42.78176 22.87532 35054 ft 520 kts 134°
2026-05-06 09:54 42.73099 22.94557 35053 ft 520 kts 134°
2026-05-06 09:54 42.68019 23.01569 35062 ft 520 kts 134°
2026-05-06 09:55 42.62938 23.08566 35063 ft 521 kts 134°
2026-05-06 09:55 42.57847 23.15561 35072 ft 521 kts 134°
2026-05-06 09:56 42.52736 23.22563 35070 ft 522 kts 134°
2026-05-06 09:56 42.47615 23.29565 35071 ft 523 kts 134°
2026-05-06 09:57 42.42492 23.36550 35077 ft 523 kts 134°
2026-05-06 09:57 42.37388 23.43492 35074 ft 524 kts 134°
2026-05-06 09:58 42.32244 23.50472 35083 ft 525 kts 134°
2026-05-06 09:58 42.27067 23.57479 35079 ft 526 kts 134°
2026-05-06 09:59 42.21886 23.64475 35050 ft 527 kts 134°
2026-05-06 09:59 42.16734 23.71413 35074 ft 527 kts 134°
2026-05-06 10:00 42.11543 23.78387 35081 ft 526 kts 134°
2026-05-06 10:00 42.06353 23.85345 35070 ft 527 kts 134°
2026-05-06 10:01 42.01148 23.92306 35081 ft 529 kts 134°
2026-05-06 10:01 41.95911 23.99292 35079 ft 530 kts 134°
2026-05-06 10:02 41.90664 24.06273 35055 ft 530 kts 134°
2026-05-06 10:02 41.85420 24.13232 35068 ft 529 kts 134°
2026-05-06 10:03 41.80184 24.20164 35064 ft 528 kts 134°
2026-05-06 10:03 41.74952 24.27075 35061 ft 527 kts 134°
2026-05-06 10:04 41.69762 24.33914 35060 ft 527 kts 134°
2026-05-06 10:04 41.64541 24.40779 35074 ft 526 kts 134°
2026-05-06 10:05 41.59320 24.47625 35064 ft 526 kts 134°
2026-05-06 10:05 41.54096 24.54460 35080 ft 526 kts 134°
2026-05-06 10:06 41.49750 24.60136 35074 ft 526 kts 134°
2026-05-06 10:06 41.44522 24.66948 35070 ft 526 kts 134°
2026-05-06 10:07 41.39282 24.73768 35077 ft 526 kts 134°
2026-05-06 10:07 41.34054 24.80596 35082 ft 526 kts 134°
2026-05-06 10:08 41.28832 24.87415 35075 ft 526 kts 134°
2026-05-06 10:08 41.23600 24.94223 35083 ft 526 kts 134°
2026-05-06 10:09 41.18365 25.01016 35088 ft 525 kts 134°
2026-05-06 10:09 41.13132 25.07790 35082 ft 525 kts 134°
2026-05-06 10:10 41.07905 25.14542 35086 ft 524 kts 134°
2026-05-06 10:10 41.02715 25.21229 35094 ft 524 kts 134°
2026-05-06 10:11 40.97481 25.27957 35092 ft 524 kts 135°
2026-05-06 10:11 40.92253 25.34663 35090 ft 523 kts 135°
2026-05-06 10:12 40.87030 25.41347 35088 ft 522 kts 135°
2026-05-06 10:12 40.81811 25.48009 35095 ft 521 kts 135°
2026-05-06 10:13 40.76592 25.54657 35087 ft 521 kts 135°
2026-05-06 10:13 40.71374 25.61289 35092 ft 521 kts 135°
2026-05-06 10:14 40.66152 25.67910 35092 ft 521 kts 135°
2026-05-06 10:14 40.60932 25.74515 35094 ft 521 kts 135°
2026-05-06 10:15 40.55702 25.81118 35101 ft 521 kts 135°
2026-05-06 10:15 40.50585 25.87842 35090 ft 520 kts 129°
2026-05-06 10:16 40.46335 25.95432 35118 ft 517 kts 120°
2026-05-06 10:16 40.42466 26.03392 35101 ft 518 kts 120°
2026-05-06 10:17 40.38568 26.11360 35108 ft 518 kts 121°
2026-05-06 10:17 40.34640 26.19288 35105 ft 519 kts 121°
2026-05-06 10:18 40.30687 26.27212 35102 ft 519 kts 121°
2026-05-06 10:18 40.26730 26.35117 35105 ft 519 kts 121°
2026-05-06 10:19 40.22771 26.43015 35103 ft 519 kts 121°
2026-05-06 10:19 40.18811 26.50896 35112 ft 518 kts 121°
2026-05-06 10:20 40.14845 26.58771 35110 ft 518 kts 121°
2026-05-06 10:20 40.10907 26.66572 35104 ft 518 kts 121°
2026-05-06 10:21 40.06937 26.74413 35098 ft 517 kts 121°
2026-05-06 10:21 40.02969 26.82232 35099 ft 516 kts 122°
2026-05-06 10:22 39.99004 26.90027 35088 ft 515 kts 122°
2026-05-06 10:22 39.95034 26.97811 35101 ft 515 kts 122°
2026-05-06 10:23 39.91066 27.05572 35098 ft 515 kts 122°
2026-05-06 10:23 39.87087 27.13337 35104 ft 515 kts 122°
2026-05-06 10:24 39.83134 27.21031 35097 ft 514 kts 122°
2026-05-06 10:24 39.79152 27.28763 35105 ft 514 kts 122°
2026-05-06 10:25 39.75160 27.36495 35099 ft 515 kts 122°
2026-05-06 10:25 39.71161 27.44222 35100 ft 515 kts 122°
2026-05-06 10:26 39.67156 27.51941 35097 ft 515 kts 122°
2026-05-06 10:26 39.63153 27.59639 35107 ft 515 kts 122°
2026-05-06 10:27 39.59138 27.67339 35106 ft 515 kts 122°
2026-05-06 10:27 39.55147 27.74976 35108 ft 515 kts 123°
2026-05-06 10:28 39.51117 27.82669 35103 ft 515 kts 123°
2026-05-06 10:28 39.47091 27.90337 35103 ft 515 kts 123°
2026-05-06 10:29 39.43061 27.97993 35106 ft 515 kts 123°
2026-05-06 10:29 39.39028 28.05636 35107 ft 515 kts 123°
2026-05-06 10:30 39.34987 28.13277 35118 ft 514 kts 123°
2026-05-06 10:30 39.30944 28.20901 35105 ft 514 kts 123°
2026-05-06 10:31 39.26898 28.28515 35111 ft 514 kts 123°
2026-05-06 10:31 39.22877 28.36062 35107 ft 514 kts 123°
2026-05-06 10:32 39.18821 28.43659 35110 ft 514 kts 123°
2026-05-06 10:32 39.14766 28.51235 35108 ft 514 kts 123°
2026-05-06 10:33 39.10697 28.58819 35100 ft 514 kts 124°
2026-05-06 10:33 39.06626 28.66388 35111 ft 514 kts 124°
2026-05-06 10:34 39.02558 28.73936 35100 ft 514 kts 124°
2026-05-06 10:34 38.98478 28.81488 35101 ft 514 kts 124°
2026-05-06 10:35 38.94393 28.89030 35107 ft 514 kts 124°
2026-05-06 10:35 38.90294 28.96583 35093 ft 515 kts 124°
2026-05-06 10:36 38.86215 29.04077 35111 ft 516 kts 124°
2026-05-06 10:36 38.82100 29.11623 35121 ft 516 kts 124°
2026-05-06 10:37 38.77972 29.19175 35113 ft 517 kts 124°
2026-05-06 10:37 38.73840 29.26715 35120 ft 517 kts 124°
2026-05-06 10:38 38.69703 29.34248 35127 ft 517 kts 124°
2026-05-06 10:38 38.65557 29.41780 35132 ft 517 kts 124°
2026-05-06 10:39 38.61413 29.49290 35131 ft 517 kts 124°
2026-05-06 10:39 38.57259 29.56801 35125 ft 517 kts 124°
2026-05-06 10:40 38.53100 29.64304 35125 ft 517 kts 124°
2026-05-06 10:40 38.48938 29.71794 35118 ft 518 kts 124°
2026-05-06 10:41 38.44770 29.79279 35120 ft 517 kts 124°
2026-05-06 10:41 38.40622 29.86710 35115 ft 518 kts 124°
2026-05-06 10:42 38.36433 29.94199 35111 ft 518 kts 124°
2026-05-06 10:42 38.32236 30.01685 35120 ft 519 kts 124°
2026-05-06 10:43 38.28034 30.09161 35113 ft 519 kts 124°
2026-05-06 10:44 38.21743 30.20322 35117 ft 520 kts 124°
2026-05-06 10:44 38.17522 30.27791 35126 ft 520 kts 124°
2026-05-06 10:45 38.13290 30.35260 35125 ft 521 kts 124°
2026-05-06 10:45 38.09054 30.42721 35123 ft 521 kts 124°
2026-05-06 10:46 38.04807 30.50185 35125 ft 522 kts 124°
2026-05-06 10:46 38.00550 30.57649 35123 ft 522 kts 124°
2026-05-06 10:47 37.96296 30.65088 35119 ft 521 kts 124°
2026-05-06 10:47 37.92037 30.72521 35128 ft 522 kts 124°
2026-05-06 10:48 37.87760 30.79970 35112 ft 523 kts 124°
2026-05-06 10:48 37.83474 30.87417 35099 ft 525 kts 124°
2026-05-06 10:49 37.79188 30.94847 35104 ft 526 kts 124°
2026-05-06 10:49 37.74840 31.02367 35100 ft 527 kts 124°
2026-05-06 10:50 37.70529 31.09806 35101 ft 528 kts 124°
2026-05-06 10:50 37.66177 31.17299 35083 ft 528 kts 124°
2026-05-06 10:51 37.61826 31.24773 35073 ft 529 kts 124°
2026-05-06 10:51 37.57467 31.32246 35077 ft 528 kts 124°
2026-05-06 10:52 37.53105 31.39704 35081 ft 529 kts 124°
2026-05-06 10:52 37.48731 31.47168 35081 ft 529 kts 124°
2026-05-06 10:53 37.44351 31.54625 35082 ft 530 kts 124°
2026-05-06 10:53 37.39991 31.62034 35083 ft 531 kts 124°
2026-05-06 10:54 37.35589 31.69495 35078 ft 531 kts 124°
2026-05-06 10:54 37.31185 31.76941 35080 ft 531 kts 124°
2026-05-06 10:55 37.26773 31.84386 35079 ft 530 kts 124°
2026-05-06 10:55 37.22370 31.91801 35080 ft 529 kts 124°
2026-05-06 10:56 37.18705 31.97959 35077 ft 529 kts 124°
2026-05-06 10:56 37.14297 32.05351 35091 ft 529 kts 124°
2026-05-06 10:57 37.09882 32.12740 35081 ft 529 kts 125°
2026-05-06 10:57 37.05461 32.20119 35087 ft 530 kts 125°
2026-05-06 10:58 37.01028 32.27506 35067 ft 531 kts 125°
2026-05-06 10:58 36.96587 32.34889 35083 ft 532 kts 125°
2026-05-06 10:59 36.92153 32.42246 35074 ft 534 kts 125°
2026-05-06 10:59 36.87674 32.49653 35082 ft 535 kts 126°
2026-05-06 11:00 36.83122 32.57031 35082 ft 537 kts 126°
2026-05-06 11:00 36.78528 32.64415 35084 ft 539 kts 126°
2026-05-06 11:01 36.73935 32.71802 35065 ft 537 kts 126°
2026-05-06 11:01 36.69363 32.79153 35081 ft 536 kts 127°
2026-05-06 11:02 36.64794 32.86485 35059 ft 536 kts 127°
2026-05-06 11:02 36.60229 32.93797 35063 ft 535 kts 127°
2026-05-06 11:03 36.55685 33.01058 35072 ft 535 kts 127°
2026-05-06 11:03 36.51101 33.08367 35058 ft 536 kts 127°
2026-05-06 11:04 36.46508 33.15674 35059 ft 537 kts 127°
2026-05-06 11:04 36.41910 33.22977 35055 ft 537 kts 128°
2026-05-06 11:05 36.37304 33.30273 35060 ft 536 kts 128°
2026-05-06 11:05 36.32688 33.37543 35063 ft 536 kts 128°
2026-05-06 11:06 36.28066 33.44800 35072 ft 535 kts 128°
2026-05-06 11:06 36.23484 33.51985 35069 ft 534 kts 129°
2026-05-06 11:07 36.18873 33.59205 35071 ft 534 kts 129°
2026-05-06 11:07 36.14263 33.66407 35067 ft 533 kts 129°
2026-05-06 11:08 36.09654 33.73593 35074 ft 533 kts 129°
2026-05-06 11:08 36.05044 33.80765 35071 ft 533 kts 129°
2026-05-06 11:09 36.00428 33.87932 35076 ft 533 kts 129°
2026-05-06 11:09 35.95809 33.95090 35067 ft 533 kts 130°
2026-05-06 11:10 35.90642 34.01607 35081 ft 529 kts 142°
2026-05-06 11:10 35.84692 34.06867 35069 ft 525 kts 152°
2026-05-06 11:11 35.78385 34.11398 35073 ft 525 kts 153°
2026-05-06 11:11 35.72099 34.15985 35072 ft 525 kts 152°
2026-05-06 11:12 35.65867 34.20576 35078 ft 525 kts 153°
2026-05-06 11:12 35.59578 34.25159 35074 ft 525 kts 153°
2026-05-06 11:13 35.53290 34.29729 35074 ft 525 kts 153°
2026-05-06 11:13 35.47001 34.34298 35071 ft 525 kts 153°
2026-05-06 11:14 35.40713 34.38861 35079 ft 524 kts 153°
2026-05-06 11:14 35.34439 34.43407 35069 ft 523 kts 153°
2026-05-06 11:15 35.28183 34.47931 35072 ft 521 kts 153°
2026-05-06 11:15 35.21939 34.52437 35073 ft 520 kts 154°
2026-05-06 11:16 35.15712 34.56923 35083 ft 519 kts 154°
2026-05-06 11:16 35.09495 34.61394 35076 ft 518 kts 154°
2026-05-06 11:17 35.03281 34.65856 35079 ft 518 kts 154°
2026-05-06 11:17 34.97078 34.70301 35078 ft 517 kts 154°
2026-05-06 11:18 34.90910 34.74717 35083 ft 517 kts 154°
2026-05-06 11:18 34.84701 34.79157 35082 ft 518 kts 155°
2026-05-06 11:19 34.78482 34.83596 35087 ft 518 kts 155°
2026-05-06 11:19 34.72262 34.88027 35087 ft 519 kts 155°
2026-05-06 11:20 34.66022 34.92465 35087 ft 520 kts 155°
2026-05-06 11:20 34.59778 34.96899 35088 ft 520 kts 155°
2026-05-06 11:21 34.53535 35.01329 35083 ft 518 kts 154°
2026-05-06 11:21 34.50615 35.03952 35097 ft 527 kts 141°
2026-05-06 11:21 34.48188 35.07318 35097 ft 534 kts 128°
2026-05-06 11:21 34.46315 35.11233 35092 ft 539 kts 115°
2026-05-06 11:22 34.45079 35.15453 35104 ft 539 kts 109°
2026-05-06 11:22 34.42828 35.24196 35082 ft 541 kts 109°
2026-05-06 11:23 34.40531 35.32805 35093 ft 541 kts 110°
2026-05-06 11:23 34.38123 35.41450 35090 ft 541 kts 111°
2026-05-06 11:24 34.35696 35.50082 35093 ft 541 kts 111°
2026-05-06 11:24 34.33279 35.58702 35090 ft 541 kts 111°
2026-05-06 11:25 34.30965 35.67373 35095 ft 542 kts 106°
2026-05-06 11:25 34.29679 35.76375 35088 ft 544 kts 95°
2026-05-06 11:26 34.29329 35.85513 35097 ft 544 kts 93°
2026-05-06 11:26 34.28967 35.94650 35085 ft 544 kts 94°
2026-05-06 11:27 34.28544 36.03777 35076 ft 543 kts 94°
2026-05-06 11:27 34.28229 36.12901 35065 ft 542 kts 93°
2026-05-06 11:28 34.27939 36.21942 35072 ft 540 kts 94°
2026-05-06 11:28 34.27784 36.26468 34915 ft 539 kts 94°
2026-05-06 11:28 34.27622 36.30987 34960 ft 536 kts 94°
2026-05-06 11:29 34.27292 36.39967 35051 ft 534 kts 94°
2026-05-06 11:29 34.26955 36.48951 35060 ft 536 kts 94°
2026-05-06 11:30 34.26614 36.57971 35059 ft 538 kts 94°
2026-05-06 11:30 34.26060 36.67000 35048 ft 539 kts 98°
2026-05-06 11:31 34.25294 36.76017 35054 ft 540 kts 98°
2026-05-06 11:31 34.24555 36.85059 35048 ft 541 kts 98°
2026-05-06 11:32 34.23852 36.94123 35051 ft 542 kts 98°
2026-05-06 11:32 34.23148 37.03193 35048 ft 542 kts 98°
2026-05-06 11:33 34.22436 37.12212 35047 ft 542 kts 98°
2026-05-06 11:33 34.21246 37.21115 35039 ft 529 kts 117°
2026-05-06 11:33 34.19523 37.24959 35053 ft 515 kts 133°
2026-05-06 11:34 34.17174 37.28176 35057 ft 507 kts 144°
2026-05-06 11:34 34.14407 37.30742 35039 ft 497 kts 158°
2026-05-06 11:34 34.11344 37.32557 35065 ft 489 kts 162°
2026-05-06 11:35 34.05148 37.36085 35053 ft 496 kts 162°
2026-05-06 11:35 33.98952 37.39724 35030 ft 491 kts 161°
2026-05-06 11:36 33.92876 37.43351 35042 ft 487 kts 161°
2026-05-06 11:36 33.86793 37.46972 35049 ft 488 kts 161°
2026-05-06 11:37 33.80701 37.50588 35050 ft 488 kts 162°
2026-05-06 11:37 33.74609 37.54200 35049 ft 488 kts 162°
2026-05-06 11:38 33.68557 37.57783 35057 ft 488 kts 162°
2026-05-06 11:38 33.62469 37.61381 35044 ft 487 kts 162°
2026-05-06 11:39 33.56394 37.64967 35043 ft 486 kts 162°
2026-05-06 11:39 33.50314 37.68483 35042 ft 484 kts 163°
2026-05-06 11:40 33.44238 37.71959 35039 ft 483 kts 162°
2026-05-06 11:40 33.38172 37.75429 35041 ft 483 kts 163°
2026-05-06 11:41 33.32109 37.78886 35037 ft 482 kts 163°
2026-05-06 11:41 33.26094 37.82310 35049 ft 482 kts 163°
2026-05-06 11:42 33.20030 37.85759 35043 ft 482 kts 163°
2026-05-06 11:42 33.13979 37.89196 35042 ft 482 kts 163°
2026-05-06 11:43 33.07926 37.92628 35039 ft 482 kts 163°
2026-05-06 11:43 33.01868 37.96059 35041 ft 482 kts 163°
2026-05-06 11:44 32.93795 38.00631 35038 ft 484 kts 162°
2026-05-06 11:44 32.87759 38.04227 35036 ft 485 kts 162°
2026-05-06 11:45 32.81719 38.07829 35044 ft 485 kts 162°
2026-05-06 11:45 32.75669 38.11418 35043 ft 486 kts 162°
2026-05-06 11:46 32.69612 38.15005 35056 ft 486 kts 162°
2026-05-06 11:46 32.63584 38.18573 35050 ft 487 kts 162°
2026-05-06 11:47 32.57522 38.22156 35052 ft 487 kts 162°
2026-05-06 11:47 32.51454 38.25737 35052 ft 487 kts 162°
2026-05-06 11:48 32.45390 38.29310 35058 ft 487 kts 162°
2026-05-06 11:48 32.39327 38.32878 35063 ft 486 kts 162°
2026-05-06 11:49 32.33300 38.36418 35063 ft 486 kts 162°
2026-05-06 11:49 32.27238 38.39975 35065 ft 486 kts 162°
2026-05-06 11:50 32.21180 38.43523 35067 ft 486 kts 162°
2026-05-06 11:50 32.15127 38.47064 35066 ft 485 kts 162°
2026-05-06 11:51 32.09078 38.50596 35070 ft 485 kts 162°
2026-05-06 11:51 32.03038 38.54119 35070 ft 484 kts 162°
2026-05-06 11:52 31.97003 38.57633 35069 ft 483 kts 162°
2026-05-06 11:52 31.90979 38.61137 35074 ft 483 kts 162°
2026-05-06 11:53 31.84952 38.64649 35072 ft 483 kts 162°
2026-05-06 11:53 31.78969 38.68143 35075 ft 482 kts 162°
2026-05-06 11:54 31.72956 38.71647 35074 ft 482 kts 162°
2026-05-06 11:54 31.67013 38.75364 35075 ft 488 kts 158°
2026-05-06 11:55 31.61224 38.79543 35076 ft 489 kts 157°
2026-05-06 11:55 31.55442 38.83741 35078 ft 489 kts 157°
2026-05-06 11:56 31.49646 38.87910 35072 ft 488 kts 157°
2026-05-06 11:56 31.43845 38.92057 35069 ft 488 kts 157°
2026-05-06 11:57 31.38034 38.96203 35071 ft 488 kts 157°
2026-05-06 11:57 31.32243 39.00330 35067 ft 488 kts 157°
2026-05-06 11:58 31.26479 39.04433 35065 ft 488 kts 157°
2026-05-06 11:58 31.20680 39.08556 35069 ft 487 kts 157°
2026-05-06 11:59 31.14882 39.12672 35071 ft 487 kts 157°
2026-05-06 11:59 31.09087 39.16780 35074 ft 487 kts 157°
2026-05-06 12:00 31.03295 39.20880 35074 ft 487 kts 157°
2026-05-06 12:00 30.97507 39.24976 35067 ft 486 kts 157°
2026-05-06 12:01 30.91727 39.29065 35070 ft 486 kts 157°
2026-05-06 12:01 30.85951 39.33146 35072 ft 486 kts 157°
2026-05-06 12:02 30.80169 39.37225 35080 ft 486 kts 157°
2026-05-06 12:02 30.74432 39.41267 35077 ft 485 kts 157°
2026-05-06 12:03 30.68661 39.45327 35076 ft 485 kts 157°
2026-05-06 12:03 30.62895 39.49377 35074 ft 484 kts 157°
2026-05-06 12:04 30.57131 39.53421 35077 ft 484 kts 157°
2026-05-06 12:04 30.51361 39.57464 35077 ft 484 kts 157°
2026-05-06 12:05 30.45601 39.61506 35080 ft 485 kts 155°
2026-05-06 12:05 30.40284 39.66509 35088 ft 500 kts 143°
2026-05-06 12:06 30.35784 39.72799 35088 ft 511 kts 134°
2026-05-06 12:06 30.31592 39.79468 35088 ft 512 kts 134°
2026-05-06 12:07 30.27385 39.86113 35090 ft 511 kts 134°
2026-05-06 12:07 30.23169 39.92666 35090 ft 511 kts 135°
2026-05-06 12:08 30.18908 39.99246 35082 ft 511 kts 135°
2026-05-06 12:08 30.14625 40.05855 35092 ft 511 kts 135°
2026-05-06 12:09 30.10396 40.12375 35093 ft 511 kts 135°
2026-05-06 12:09 30.06137 40.18933 35092 ft 510 kts 135°
2026-05-06 12:10 30.01873 40.25490 35093 ft 510 kts 135°
2026-05-06 12:10 29.97604 40.32033 35093 ft 510 kts 135°
2026-05-06 12:11 29.93327 40.38568 35086 ft 510 kts 135°
2026-05-06 12:11 29.89056 40.45087 35083 ft 510 kts 135°
2026-05-06 12:12 29.84768 40.51623 35085 ft 510 kts 135°
2026-05-06 12:12 29.80485 40.58146 35100 ft 511 kts 135°
2026-05-06 12:13 29.76227 40.64711 35075 ft 515 kts 132°
2026-05-06 12:13 29.72378 40.71721 35093 ft 519 kts 130°
2026-05-06 12:14 29.68580 40.78787 35083 ft 520 kts 130°
2026-05-06 12:14 29.64780 40.85866 35084 ft 520 kts 130°
2026-05-06 12:15 29.61004 40.92876 35084 ft 520 kts 130°
2026-05-06 12:15 29.57192 40.99932 35079 ft 520 kts 130°
2026-05-06 12:16 29.53376 41.06979 35076 ft 519 kts 130°
2026-05-06 12:16 29.49556 41.14020 35075 ft 519 kts 130°
2026-05-06 12:17 29.45736 41.21053 35067 ft 519 kts 130°
2026-05-06 12:17 29.41909 41.28085 35069 ft 519 kts 130°
2026-05-06 12:18 29.38084 41.35100 35064 ft 519 kts 130°
2026-05-06 12:18 29.34255 41.42112 35065 ft 519 kts 131°
2026-05-06 12:19 29.30421 41.49121 35062 ft 519 kts 131°
2026-05-06 12:19 29.26584 41.56122 35060 ft 519 kts 131°
2026-05-06 12:20 29.22750 41.63109 35056 ft 518 kts 131°
2026-05-06 12:20 29.18907 41.70099 35065 ft 518 kts 131°
2026-05-06 12:21 29.15062 41.77080 35054 ft 518 kts 131°
2026-05-06 12:21 29.11243 41.84003 35047 ft 518 kts 131°
2026-05-06 12:22 29.07392 41.90972 35044 ft 518 kts 131°
2026-05-06 12:22 29.03515 41.97903 35037 ft 515 kts 134°
2026-05-06 12:23 28.99017 42.04104 35045 ft 503 kts 142°
2026-05-06 12:23 28.94225 42.09904 35037 ft 502 kts 143°
2026-05-06 12:24 28.89390 42.15655 35032 ft 502 kts 143°
2026-05-06 12:24 28.84558 42.21440 35031 ft 503 kts 143°
2026-05-06 12:25 28.79740 42.27241 35032 ft 504 kts 143°
2026-05-06 12:25 28.74961 42.33000 35031 ft 504 kts 143°
2026-05-06 12:26 28.70139 42.38802 35024 ft 504 kts 143°
2026-05-06 12:26 28.65312 42.44599 35024 ft 503 kts 143°
2026-05-06 12:27 28.60494 42.50376 35018 ft 503 kts 143°
2026-05-06 12:27 28.55673 42.56146 35019 ft 503 kts 143°
2026-05-06 12:28 28.50860 42.61901 35013 ft 502 kts 143°
2026-05-06 12:28 28.46069 42.67620 35012 ft 502 kts 143°
2026-05-06 12:29 28.41254 42.73360 35008 ft 502 kts 143°
2026-05-06 12:29 28.36440 42.79090 35006 ft 501 kts 143°
2026-05-06 12:30 28.31613 42.84829 35007 ft 501 kts 143°
2026-05-06 12:30 28.26794 42.90549 35000 ft 501 kts 143°
2026-05-06 12:31 28.21979 42.96258 35014 ft 501 kts 143°
2026-05-06 12:31 28.17154 43.01969 35001 ft 501 kts 143°
2026-05-06 12:32 28.12362 43.07633 34993 ft 501 kts 143°
2026-05-06 12:32 28.07540 43.13326 34994 ft 501 kts 143°
2026-05-06 12:33 28.02709 43.19020 34990 ft 501 kts 143°
2026-05-06 12:33 27.97878 43.24708 34990 ft 501 kts 143°
2026-05-06 12:34 27.93823 43.29475 34988 ft 502 kts 143°
2026-05-06 12:34 27.88981 43.35160 34982 ft 502 kts 143°
2026-05-06 12:35 27.84172 43.40800 34983 ft 502 kts 143°
2026-05-06 12:35 27.79328 43.46473 34976 ft 501 kts 144°
2026-05-06 12:36 27.74481 43.52142 34980 ft 501 kts 144°
2026-05-06 12:36 27.69644 43.57791 34977 ft 501 kts 144°
2026-05-06 12:37 27.64800 43.63440 34987 ft 500 kts 144°
2026-05-06 12:37 27.59961 43.69075 34975 ft 500 kts 144°
2026-05-06 12:38 27.55749 43.73975 34973 ft 500 kts 144°
2026-05-06 12:38 27.50903 43.79605 34977 ft 500 kts 144°
2026-05-06 12:39 27.46054 43.85230 34978 ft 500 kts 144°
2026-05-06 12:39 27.41204 43.90850 34974 ft 501 kts 144°
2026-05-06 12:40 27.36341 43.96476 34969 ft 501 kts 144°
2026-05-06 12:40 27.31474 44.02100 34968 ft 501 kts 144°
2026-05-06 12:41 27.26604 44.07719 34971 ft 502 kts 143°
2026-05-06 12:41 27.21727 44.13339 34957 ft 502 kts 143°
2026-05-06 12:42 27.16884 44.18913 34956 ft 502 kts 144°
2026-05-06 12:42 27.12004 44.24523 34963 ft 502 kts 144°
2026-05-06 12:43 27.07113 44.30135 34956 ft 503 kts 143°
2026-05-06 12:43 27.02215 44.35750 34956 ft 503 kts 144°
2026-05-06 12:44 26.97314 44.41362 34954 ft 503 kts 144°
2026-05-06 12:44 26.92414 44.46964 34960 ft 503 kts 144°
2026-05-06 12:45 26.87509 44.52564 34947 ft 503 kts 144°
2026-05-06 12:46 26.80159 44.60944 34953 ft 502 kts 144°
2026-05-06 12:46 26.75264 44.66515 34953 ft 502 kts 144°
2026-05-06 12:47 26.70367 44.72080 34949 ft 501 kts 144°
2026-05-06 12:47 26.65773 44.77294 34953 ft 501 kts 144°
2026-05-06 12:48 26.60877 44.82844 34968 ft 501 kts 144°
2026-05-06 12:48 26.55974 44.88395 34958 ft 502 kts 144°
2026-05-06 12:49 26.51069 44.93941 34964 ft 502 kts 144°
2026-05-06 12:49 26.46151 44.99494 34967 ft 502 kts 144°
2026-05-06 12:50 26.41226 45.05048 34960 ft 503 kts 144°
2026-05-06 12:50 26.36302 45.10595 34961 ft 503 kts 144°
2026-05-06 12:51 26.31374 45.16139 34961 ft 504 kts 144°
2026-05-06 12:51 26.26465 45.21654 34964 ft 504 kts 144°
2026-05-06 12:52 26.21520 45.27203 34964 ft 504 kts 144°
2026-05-06 12:52 26.16574 45.32746 34963 ft 504 kts 144°
2026-05-06 12:53 26.11631 45.38278 34962 ft 504 kts 144°
2026-05-06 12:53 26.06681 45.43811 34959 ft 504 kts 144°
2026-05-06 12:54 26.01736 45.49332 34958 ft 504 kts 144°
2026-05-06 12:54 25.96819 45.54813 34958 ft 504 kts 144°
2026-05-06 12:55 25.91869 45.60326 34959 ft 503 kts 144°
2026-05-06 12:55 25.86913 45.65838 34952 ft 504 kts 143°
2026-05-06 12:56 25.81982 45.71314 34957 ft 504 kts 143°
2026-05-06 12:56 25.77031 45.76807 34951 ft 503 kts 143°
2026-05-06 12:57 25.72072 45.82302 34952 ft 503 kts 143°
2026-05-06 12:57 25.67112 45.87790 34949 ft 504 kts 143°
2026-05-06 12:58 25.62148 45.93275 34944 ft 504 kts 143°
2026-05-06 12:58 25.57176 45.98763 34946 ft 505 kts 143°
2026-05-06 12:59 25.52194 46.04255 34948 ft 505 kts 143°
2026-05-06 12:59 25.47232 46.09718 34948 ft 506 kts 143°
2026-05-06 13:00 25.42227 46.15222 34947 ft 508 kts 143°
2026-05-06 13:00 25.37207 46.20736 34940 ft 508 kts 143°
2026-05-06 13:01 25.32179 46.26252 34949 ft 509 kts 143°
2026-05-06 13:01 25.27146 46.31767 34954 ft 510 kts 143°
2026-05-06 13:02 25.22103 46.37286 34949 ft 511 kts 143°
2026-05-06 13:02 25.17086 46.42769 34947 ft 511 kts 143°
2026-05-06 13:03 25.12027 46.48292 34943 ft 511 kts 143°
2026-05-06 13:03 25.06974 46.53802 34940 ft 510 kts 143°
2026-05-06 13:04 25.01919 46.59306 34947 ft 510 kts 143°
2026-05-06 13:04 24.96865 46.64802 34931 ft 510 kts 142°
2026-05-06 13:05 24.91809 46.70295 34934 ft 510 kts 142°
2026-05-06 13:05 24.86760 46.75773 34946 ft 509 kts 142°
2026-05-06 13:06 24.81708 46.81247 34933 ft 509 kts 142°
2026-05-06 13:06 24.76688 46.86680 34936 ft 509 kts 142°
2026-05-06 13:07 24.71627 46.92151 34931 ft 510 kts 142°
2026-05-06 13:07 24.66558 46.97623 34897 ft 511 kts 142°
2026-05-06 13:08 24.61485 47.03094 34897 ft 511 kts 142°
2026-05-06 13:08 24.56409 47.08563 34893 ft 510 kts 142°
2026-05-06 13:09 24.51335 47.14022 34885 ft 510 kts 142°
2026-05-06 13:09 24.46255 47.19480 34872 ft 511 kts 142°
2026-05-06 13:10 24.41173 47.24934 34858 ft 511 kts 142°
2026-05-06 13:10 24.36079 47.30394 34845 ft 512 kts 142°
2026-05-06 13:11 24.30978 47.35856 34849 ft 513 kts 142°
2026-05-06 13:11 24.25862 47.41327 34849 ft 514 kts 142°
2026-05-06 13:12 24.20771 47.46766 34856 ft 514 kts 142°
2026-05-06 13:12 24.15644 47.52236 34868 ft 515 kts 142°
2026-05-06 13:13 24.10507 47.57711 34869 ft 515 kts 142°
2026-05-06 13:13 24.05368 47.63180 34884 ft 515 kts 141°
2026-05-06 13:14 24.00220 47.68653 34863 ft 516 kts 141°
2026-05-06 13:14 23.95076 47.74116 34841 ft 516 kts 141°
2026-05-06 13:15 23.89921 47.79584 34817 ft 516 kts 141°
2026-05-06 13:15 23.84765 47.85046 34798 ft 516 kts 141°
2026-05-06 13:16 23.79609 47.90503 34783 ft 516 kts 141°
2026-05-06 13:16 23.74489 47.95915 34789 ft 516 kts 141°
2026-05-06 13:17 23.69339 48.01352 34776 ft 515 kts 141°
2026-05-06 13:17 23.64185 48.06788 34774 ft 515 kts 141°
2026-05-06 13:18 23.59042 48.12205 34769 ft 514 kts 141°
2026-05-06 13:18 23.53896 48.17620 34765 ft 514 kts 141°
2026-05-06 13:19 23.48744 48.23036 34760 ft 513 kts 141°
2026-05-06 13:19 23.43616 48.28420 34759 ft 512 kts 141°
2026-05-06 13:20 23.39276 48.34529 34757 ft 524 kts 118°
2026-05-06 13:20 23.38059 48.38287 34760 ft 531 kts 105°
2026-05-06 13:20 23.37616 48.42290 34758 ft 533 kts 94°
2026-05-06 13:21 23.37432 48.50380 34760 ft 535 kts 93°
2026-05-06 13:21 23.37221 48.58486 34757 ft 536 kts 94°
2026-05-06 13:22 23.36964 48.65275 34757 ft 536 kts 95°
2026-05-06 13:22 23.36620 48.73342 34757 ft 536 kts 95°
2026-05-06 13:23 23.36273 48.81449 34753 ft 536 kts 95°
2026-05-06 13:23 23.35930 48.89555 34748 ft 535 kts 95°
2026-05-06 13:24 23.35585 48.97634 34748 ft 534 kts 95°
2026-05-06 13:24 23.35225 49.05703 34744 ft 533 kts 96°
2026-05-06 13:25 23.34283 49.13668 34749 ft 530 kts 101°
2026-05-06 13:25 23.33091 49.21576 34740 ft 530 kts 102°
2026-05-06 13:26 23.31903 49.29484 34739 ft 530 kts 101°
2026-05-06 13:26 23.30745 49.37400 34743 ft 530 kts 101°
2026-05-06 13:27 23.29600 49.45317 34739 ft 530 kts 101°
2026-05-06 13:27 23.28450 49.53241 34739 ft 530 kts 101°
2026-05-06 13:28 23.27293 49.61171 34741 ft 530 kts 101°
2026-05-06 13:28 23.26132 49.69087 34741 ft 530 kts 101°
2026-05-06 13:29 23.24965 49.77010 34741 ft 530 kts 101°
2026-05-06 13:29 23.23802 49.84881 34740 ft 530 kts 101°
2026-05-06 13:30 23.22628 49.92802 34741 ft 530 kts 101°
2026-05-06 13:30 23.21450 50.00716 34747 ft 530 kts 101°
2026-05-06 13:31 23.20269 50.08629 34743 ft 530 kts 101°
2026-05-06 13:31 23.19083 50.16544 34736 ft 530 kts 101°
2026-05-06 13:32 23.17895 50.24451 34734 ft 530 kts 101°
2026-05-06 13:32 23.16702 50.32357 34736 ft 530 kts 101°
2026-05-06 13:33 23.15505 50.40263 34738 ft 530 kts 101°
2026-05-06 13:33 23.14313 50.48110 34740 ft 530 kts 101°
2026-05-06 13:34 23.13108 50.56012 34733 ft 530 kts 101°
2026-05-06 13:34 23.11900 50.63905 34733 ft 530 kts 101°
2026-05-06 13:35 23.10690 50.71793 34731 ft 530 kts 101°
2026-05-06 13:35 23.09474 50.79685 34730 ft 529 kts 101°
2026-05-06 13:36 23.08254 50.87576 34727 ft 529 kts 101°
2026-05-06 13:36 23.07033 50.95453 34729 ft 529 kts 101°
2026-05-06 13:37 23.05809 51.03090 34768 ft 528 kts 103°
2026-05-06 13:37 23.04518 51.10966 34722 ft 530 kts 101°
2026-05-06 13:38 23.03343 51.18855 34742 ft 530 kts 101°
2026-05-06 13:38 23.02141 51.26744 34728 ft 530 kts 101°
2026-05-06 13:39 23.00902 51.34640 34724 ft 530 kts 102°
2026-05-06 13:39 22.99648 51.42536 34729 ft 530 kts 102°
2026-05-06 13:40 22.98396 51.50411 34731 ft 530 kts 102°
2026-05-06 13:40 22.97147 51.58248 34729 ft 530 kts 102°
2026-05-06 13:41 22.95878 51.66189 34717 ft 530 kts 102°
2026-05-06 13:41 22.94623 51.74025 34729 ft 530 kts 102°
2026-05-06 13:42 22.93356 51.81903 34723 ft 530 kts 102°
2026-05-06 13:42 22.92085 51.89781 34723 ft 530 kts 102°
2026-05-06 13:43 22.90809 51.97662 34724 ft 530 kts 102°
2026-05-06 13:43 22.89533 52.05522 34724 ft 529 kts 102°
2026-05-06 13:44 22.88252 52.13382 34718 ft 529 kts 102°
2026-05-06 13:44 22.86969 52.21234 34716 ft 529 kts 102°
2026-05-06 13:45 22.85682 52.29088 34718 ft 529 kts 102°
2026-05-06 13:45 22.83753 52.40811 34719 ft 529 kts 102°
2026-05-06 13:46 22.82519 52.48579 34713 ft 529 kts 99°
2026-05-06 13:46 22.82092 52.56540 34725 ft 530 kts 92°
2026-05-06 13:47 22.81959 52.64533 34724 ft 530 kts 92°
2026-05-06 13:47 22.81803 52.72522 34720 ft 530 kts 92°
2026-05-06 13:48 22.81603 52.80511 34726 ft 530 kts 92°
2026-05-06 13:48 22.81384 52.88499 34717 ft 530 kts 92°
2026-05-06 13:49 22.81163 52.96487 34727 ft 530 kts 92°
2026-05-06 13:49 22.80942 53.04422 34725 ft 530 kts 92°
2026-05-06 13:50 22.80717 53.12403 34726 ft 530 kts 92°
2026-05-06 13:50 22.80488 53.20384 34723 ft 530 kts 92°
2026-05-06 13:51 22.80254 53.28369 34724 ft 530 kts 92°
2026-05-06 13:51 22.80017 53.36355 34729 ft 530 kts 92°
2026-05-06 13:52 22.79775 53.44352 34724 ft 530 kts 92°
2026-05-06 13:52 22.79531 53.52288 34733 ft 530 kts 92°
2026-05-06 13:53 22.79282 53.60288 34727 ft 530 kts 92°
2026-05-06 13:53 22.79029 53.68270 34730 ft 530 kts 92°
2026-05-06 13:54 22.78772 53.76247 34733 ft 529 kts 92°
2026-05-06 13:54 22.78511 53.84217 34733 ft 529 kts 92°
2026-05-06 13:55 22.78247 53.92189 34734 ft 529 kts 92°
2026-05-06 13:55 22.78335 54.00161 34737 ft 529 kts 84°
2026-05-06 13:56 22.79617 54.07948 34737 ft 528 kts 74°
2026-05-06 13:56 22.82531 54.15271 34736 ft 525 kts 57°
2026-05-06 13:57 22.86854 54.21544 34750 ft 522 kts 47°
2026-05-06 13:57 22.91623 54.27496 34741 ft 523 kts 46°
2026-05-06 13:58 22.96389 54.33487 34740 ft 524 kts 47°
2026-05-06 13:58 23.01113 54.39515 34741 ft 525 kts 47°
2026-05-06 13:59 23.05829 54.45572 34741 ft 525 kts 47°
2026-05-06 13:59 23.10540 54.51630 34741 ft 525 kts 47°
2026-05-06 14:00 23.14459 54.56670 34743 ft 525 kts 47°
2026-05-06 14:00 23.19967 54.63759 34742 ft 525 kts 47°
2026-05-06 14:01 23.24679 54.69832 34749 ft 525 kts 47°
2026-05-06 14:01 23.29350 54.75860 34747 ft 525 kts 47°
2026-05-06 14:02 23.34054 54.81936 34746 ft 525 kts 47°
2026-05-06 14:02 23.38750 54.88011 34745 ft 524 kts 47°
2026-05-06 14:03 23.43453 54.94102 34749 ft 524 kts 47°
2026-05-06 14:03 23.48140 55.00179 34757 ft 524 kts 47°
2026-05-06 14:04 23.52828 55.06265 34760 ft 524 kts 47°
2026-05-06 14:04 23.57508 55.12347 34761 ft 524 kts 47°
2026-05-06 14:05 23.62185 55.18435 34772 ft 524 kts 47°
2026-05-06 14:05 23.66871 55.24540 34768 ft 524 kts 47°
2026-05-06 14:06 23.71520 55.30605 34778 ft 524 kts 47°
2026-05-06 14:06 23.76207 55.36730 34736 ft 525 kts 47°
2026-05-06 14:07 23.78547 55.39789 34519 ft 523 kts 47°
2026-05-06 14:07 23.80863 55.42819 34126 ft 520 kts 47°
2026-05-06 14:07 23.83346 55.45654 33569 ft 515 kts 37°
2026-05-06 14:07 23.86222 55.47932 33053 ft 508 kts 27°
2026-05-06 14:08 23.89332 55.49700 32644 ft 500 kts 19°
2026-05-06 14:08 23.92592 55.50887 32277 ft 490 kts 10°
2026-05-06 14:08 23.95891 55.51770 31916 ft 486 kts 11°
2026-05-06 14:08 23.99110 55.52939 31505 ft 489 kts 20°
2026-05-06 14:09 24.01132 55.54022 31230 ft 491 kts 26°
2026-05-06 14:09 24.04899 55.56847 30730 ft 492 kts 38°
2026-05-06 14:09 24.06585 55.58507 30482 ft 490 kts 40°
2026-05-06 14:09 24.09077 55.61039 30101 ft 486 kts 40°
2026-05-06 14:10 24.11548 55.63554 29641 ft 483 kts 40°
2026-05-06 14:10 24.14801 55.66836 28999 ft 478 kts 40°
2026-05-06 14:10 24.16457 55.68492 28674 ft 475 kts 40°
2026-05-06 14:10 24.18891 55.70914 28219 ft 470 kts 40°
2026-05-06 14:11 24.21308 55.73311 27560 ft 470 kts 40°
2026-05-06 14:11 24.23738 55.75718 26870 ft 471 kts 40°
2026-05-06 14:11 24.26135 55.78095 26229 ft 470 kts 40°
2026-05-06 14:11 24.28558 55.80500 25589 ft 469 kts 40°
2026-05-06 14:12 24.30974 55.82902 24983 ft 469 kts 40°
2026-05-06 14:12 24.33380 55.85296 24443 ft 465 kts 40°
2026-05-06 14:12 24.35767 55.87672 24000 ft 460 kts 40°
2026-05-06 14:12 24.38131 55.90026 23582 ft 455 kts 40°
2026-05-06 14:13 24.40460 55.92351 23098 ft 451 kts 41°
2026-05-06 14:13 24.42776 55.94664 22475 ft 449 kts 41°
2026-05-06 14:13 24.45080 55.96968 21801 ft 448 kts 41°
2026-05-06 14:13 24.47382 55.99271 21162 ft 447 kts 41°
2026-05-06 14:14 24.49673 56.01564 20590 ft 444 kts 41°
2026-05-06 14:14 24.51952 56.03846 20091 ft 440 kts 41°
2026-05-06 14:14 24.54197 56.06095 19653 ft 435 kts 41°
2026-05-06 14:14 24.56424 56.08321 19191 ft 430 kts 41°
2026-05-06 14:15 24.58712 56.10380 18666 ft 425 kts 33°
2026-05-06 14:15 24.61308 56.11919 18146 ft 423 kts 23°
2026-05-06 14:15 24.64041 56.12957 17697 ft 418 kts 14°
2026-05-06 14:15 24.66887 56.13512 17170 ft 414 kts
2026-05-06 14:16 24.69748 56.13970 16547 ft 415 kts
2026-05-06 14:16 24.72596 56.14447 15977 ft 410 kts
2026-05-06 14:16 24.75420 56.14368 15221 ft 410 kts 346°
2026-05-06 14:16 24.77999 56.13065 14639 ft 410 kts 323°
2026-05-06 14:17 24.80058 56.10931 14255 ft 404 kts 309°
2026-05-06 14:17 24.81740 56.08488 13841 ft 399 kts 305°
2026-05-06 14:17 24.83332 56.05990 13356 ft 398 kts 304°
2026-05-06 14:17 24.84894 56.03484 12854 ft 396 kts 303°
2026-05-06 14:18 24.86448 56.00985 12409 ft 394 kts 303°
2026-05-06 14:18 24.88000 55.98507 11973 ft 390 kts 304°
2026-05-06 14:18 24.89526 55.96090 11816 ft 376 kts 304°
2026-05-06 14:18 24.90988 55.93787 11693 ft 355 kts 304°
2026-05-06 14:19 24.92355 55.91641 11519 ft 330 kts 304°
2026-05-06 14:19 24.93620 55.89655 11224 ft 313 kts 304°
2026-05-06 14:19 24.94850 55.87725 10766 ft 304 kts 304°
2026-05-06 14:19 24.96057 55.85830 10238 ft 301 kts 304°
2026-05-06 14:20 24.97255 55.83949 9668 ft 300 kts 303°
2026-05-06 14:20 24.98465 55.82045 9249 ft 302 kts 303°
2026-05-06 14:20 24.99662 55.80165 9013 ft 297 kts 304°
2026-05-06 14:20 25.00850 55.78296 8635 ft 298 kts 303°
2026-05-06 14:21 25.02005 55.76478 8287 ft 294 kts 304°
2026-05-06 14:21 25.03172 55.74643 7683 ft 292 kts 304°
2026-05-06 14:21 25.04342 55.72801 7090 ft 292 kts 304°
2026-05-06 14:21 25.05497 55.70982 6575 ft 288 kts 304°
2026-05-06 14:22 25.06639 55.69183 6043 ft 285 kts 304°
2026-05-06 14:22 25.07768 55.67405 5595 ft 279 kts 304°
2026-05-06 14:22 25.08894 55.65694 5261 ft 273 kts 306°
2026-05-06 14:22 25.10009 55.63960 4955 ft 281 kts 303°
2026-05-06 14:23 25.11067 55.62132 4602 ft 283 kts 301°
2026-05-06 14:23 25.12083 55.60293 4249 ft 277 kts 301°
2026-05-06 14:23 25.13062 55.58514 3910 ft 265 kts 301°
2026-05-06 14:23 25.14003 55.56812 3589 ft 255 kts 301°
2026-05-06 14:24 25.14910 55.55172 3287 ft 246 kts 301°
2026-05-06 14:24 25.15785 55.53593 2994 ft 236 kts 301°
2026-05-06 14:24 25.16622 55.52082 2740 ft 224 kts 301°
2026-05-06 14:24 25.17381 55.50710 2445 ft 199 kts 301°
2026-05-06 14:25 25.18060 55.49481 2192 ft 177 kts 301°
2026-05-06 14:25 25.18653 55.48406 2027 ft 153 kts 302°
2026-05-06 14:25 25.19195 55.47387 1829 ft 156 kts 301°
2026-05-06 14:25 25.19737 55.46350 1533 ft 152 kts 303°
2026-05-06 14:26 25.19912 55.46011 1450 ft 149 kts 304°
2026-05-06 14:26 25.20083 55.45689 1368 ft 146 kts 304°
2026-05-06 14:26 25.20614 55.44708 1214 ft 150 kts 304°
2026-05-06 14:26 25.21196 55.43739 1020 ft 155 kts 306°
2026-05-06 14:27 25.21724 55.42824 797 ft 152 kts 305°
2026-05-06 14:27 25.22253 55.41854 499 ft 138 kts 308°
2026-05-06 14:27 25.22824 55.40905 697 ft 150 kts 306°
2026-05-06 14:27 25.23354 55.39900 1579 ft 157 kts 303°
2026-05-06 14:28 25.23965 55.38826 2415 ft 174 kts 301°
2026-05-06 14:28 25.24634 55.37643 2927 ft 189 kts 300°
2026-05-06 14:28 25.25343 55.36360 2791 ft 201 kts 300°
2026-05-06 14:28 25.26153 55.34887 2963 ft 242 kts 300°
2026-05-06 14:29 25.26997 55.33192 2965 ft 254 kts 288°
2026-05-06 14:29 25.27200 55.31250 3001 ft 263 kts 262°
2026-05-06 14:29 25.26562 55.29389 2990 ft 259 kts 233°
2026-05-06 14:29 25.25243 55.28044 3010 ft 261 kts 216°
2026-05-06 14:30 25.23745 55.26946 3007 ft 261 kts 213°
2026-05-06 14:30 25.22216 55.25899 2992 ft 256 kts 207°
2026-05-06 14:30 25.20492 55.25412 2988 ft 258 kts 179°
2026-05-06 14:30 25.18807 55.25916 2984 ft 250 kts 149°
2026-05-06 14:31 25.17616 55.27257 3000 ft 247 kts 120°
2026-05-06 14:31 25.16860 55.29002 3024 ft 256 kts 113°
2026-05-06 14:31 25.16179 55.30836 3033 ft 259 kts 112°
2026-05-06 14:31 25.15506 55.32686 3029 ft 260 kts 112°
2026-05-06 14:32 25.14837 55.34541 3027 ft 260 kts 112°
2026-05-06 14:32 25.14171 55.36387 3030 ft 258 kts 112°
2026-05-06 14:32 25.13507 55.38226 2970 ft 257 kts 112°
2026-05-06 14:32 25.12848 55.40045 2862 ft 255 kts 112°
2026-05-06 14:33 25.12184 55.41865 2703 ft 254 kts 112°
2026-05-06 14:33 25.11521 55.43662 2429 ft 253 kts 112°
2026-05-06 14:33 25.10847 55.45459 2185 ft 251 kts 111°
2026-05-06 14:33 25.10182 55.47203 2103 ft 242 kts 112°
2026-05-06 14:34 25.09522 55.48906 2061 ft 243 kts 111°
2026-05-06 14:34 25.08851 55.50655 2055 ft 251 kts 107°
2026-05-06 14:34 25.08653 55.52560 2028 ft 250 kts 77°
2026-05-06 14:34 25.09331 55.54256 2039 ft 239 kts 46°
2026-05-06 14:35 25.10571 55.55426 2030 ft 233 kts 33°
2026-05-06 14:35 25.12034 55.56135 2034 ft 232 kts
2026-05-06 14:35 25.13591 55.55872 2057 ft 235 kts 334°
2026-05-06 14:35 25.14855 55.54719 2044 ft 237 kts 310°
2026-05-06 14:36 25.15857 55.53324 2023 ft 227 kts 307°
2026-05-06 14:36 25.16702 55.51940 2017 ft 206 kts 302°
2026-05-06 14:36 25.17397 55.50683 2024 ft 178 kts 302°
2026-05-06 14:36 25.18002 55.49584 2023 ft 159 kts 302°
2026-05-06 14:37 25.18574 55.48533 1821 ft 158 kts 302°
2026-05-06 14:37 25.19120 55.47532 1698 ft 149 kts 303°
2026-05-06 14:37 25.19665 55.46531 1486 ft 155 kts 304°
2026-05-06 14:37 25.20233 55.45526 1281 ft 152 kts 306°
2026-05-06 14:38 25.20788 55.44536 1131 ft 153 kts 306°
2026-05-06 14:38 25.21345 55.43527 938 ft 156 kts 304°
2026-05-06 14:38 25.21911 55.42512 706 ft 152 kts 304°
2026-05-06 14:38 25.22439 55.41543 478 ft 144 kts 305°
2026-05-06 14:39 25.22982 55.40534 334 ft 157 kts 307°
2026-05-06 14:39 25.23566 55.39520 109 ft 155 kts 305°
2026-05-06 14:39 25.24111 55.38555 36 ft 137 kts 303°
2026-05-06 14:39 25.24530 55.37797 33 ft 93 kts 301°
2026-05-06 14:40 25.24786 55.37332 34 ft 49 kts 301°
2026-05-06 14:40 25.24918 55.37093 35 ft 34 kts 301°
2026-05-06 14:40 25.25010 55.36871 34 ft 29 kts 282°
2026-05-06 14:40 25.25024 55.36698 30 ft 12 kts 271°
2026-05-06 14:41 25.25026 55.36631 29 ft 0 kts 272°
2026-05-06 14:41 25.25026 55.36628 29 ft 2 kts 272°
2026-05-06 14:41 25.25014 55.36571 28 ft 10 kts 229°
2026-05-06 14:41 25.24950 55.36578 27 ft 11 kts 140°
2026-05-06 14:42 25.24905 55.36646 27 ft 11 kts 118°
2026-05-06 14:42 25.24875 55.36725 27 ft 11 kts 108°
2026-05-06 14:42 25.24859 55.36810 28 ft 11 kts 103°
2026-05-06 14:42 25.24808 55.36866 27 ft 12 kts 175°
2026-05-06 14:43 25.24733 55.36826 27 ft 13 kts 212°
2026-05-06 14:43 25.24654 55.36772 26 ft 14 kts 212°
2026-05-06 14:43 25.24569 55.36714 29 ft 15 kts 212°
2026-05-06 14:43 25.24485 55.36649 29 ft 15 kts 227°
2026-05-06 14:44 25.24452 55.36545 29 ft 15 kts 276°
2026-05-06 14:44 25.24485 55.36439 29 ft 15 kts 304°
2026-05-06 14:44 25.24542 55.36342 31 ft 15 kts 301°
2026-05-06 14:45 25.24618 55.36204 30 ft 5 kts 301°
2026-05-06 14:45 25.24650 55.36190 30 ft 5 kts
2026-05-06 14:45 25.24686 55.36210 29 ft 6 kts 32°
2026-05-06 14:45 25.24703 55.36223 30 ft 2 kts 32°
2026-05-06 14:46 25.24708 55.36226 30 ft 0 kts 32°